Location: Abyssinia Baptist Church
(32.7840°N, 96.7578°W)
Time: 18:42:13
(UTC+00:00)

SL-4 R/B - Pass Details

Date: 12 July 2022
Orbit: 425 x 653 km, 51.6° (Epoch: 08 August)

Event Time Altitude Azimuth Distance (km) Brightness Sun altitude
Rises 02:01:15 0° 210° (SSW) 2,395 5.3 -5.2°
Reaches altitude 10° 02:03:27 10° 203° (SSW) 1,515 4.2 -5.6°
Maximum altitude 02:06:38 40° 132° (SE) 633 1.9 -6.2°
Drops below altitude 10° 02:09:50 10° 60° (ENE) 1,514 4.0 -6.8°
Sets 02:12:01 0° 53° (NE) 2,393 5.1 -7.2°
